Terminal Aerodrome Forecast
Issued by NWS Amarillo, TX

Home | Current Version | Previous Version | Text Only | Print | Product List | Glossary On
Versions: 1 2 3 4 5 6 7 8 9 10 11 12 13 14 15 16 17 18 19 20
000
FTUS44 KAMA 282000 AAA
TAFDHT
TAF AMD
KDHT 282055Z 2821/2918 15015G25KT P6SM SCT015 SCT040
      TEMPO 2821/2823 4SM TSRA BR OVC015CB
     FM282300 18017G24KT 3SM TSRA BR OVC030CB
     FM290200 18012KT P6SM SCT100 BKN200
     FM290800 32014KT P6SM SCT200
     FM291300 36016KT P6SM SCT120 SCT200=

USA.gov is the U.S. government's official web portal to all federal, state and local government web resources and services.